Lihue, HI

4:02 AM HST on November 23, 2017 (GMT -1000)
Lihue

Weather History for PHLI - March, 2014

Change the Weather History Date:

Friday, March 21, 2014

  Actual Average Record
Temperature  
Mean Temperature 72 °F 73 °F  
Max Temperature 77 °F 79 °F 82 °F (1964)
Min Temperature 67 °F 67 °F 59 °F (1957)
Degree Days  
Heating Degree Days 0 0  
Month to date heating degree days 0 0  
Since 1 July heating degree days 0 0  
Cooling Degree Days 7 8  
Month to date cooling degree days 128 156  
Year to date cooling degree days 504 551  
Growing Degree Days 22 (Base 50)    
Moisture  
Dew Point 65 °F    
Average Humidity 77    
Maximum Humidity 90    
Minimum Humidity 64    
Precipitation  
Precipitation 0.07 in 0.15 in 2.91 in (1951)
Month to date precipitation 1.80 3.13  
Year to date precipitation 12.20 10.04  
Snow  
Snow 0.00 in - - ()
Month to date snowfall 0.0  
Since 1 July snowfall 0.0  
Snow Depth 0.00 in    
Sea Level Pressure  
Sea Level Pressure 30.08 in    
Wind  
Wind Speed 18 mph (NNE)    
Max Wind Speed 25 mph    
Max Gust Speed 31 mph    
Visibility 10 miles    
Events Rain    
T = Trace of Precipitation, MM = Missing Value Source: NWS Daily Summary

Daily Weather History Graph

Daily Weather History Graph

Search for Another Location

Airport or City:

Trip Planner

Search our weather history database for the weather conditions in past years. The results will help you decide how hot, cold, wet, or windy it might be!

Date:

Astronomy

Mar. 21, 2014 Rise Set
Actual Time 6:40 AM HST 6:48 PM HST
Civil Twilight 6:17 AM HST 7:11 PM HST
Nautical Twilight 5:52 AM HST 7:37 PM HST
Astronomical Twilight 5:25 AM HST 8:03 PM HST
Moon 11:46 PM HST (3/21) 10:14 AM HST (3/21)
Length of Visible Light 12h 53m
Length of Day
12h 08m
Waning Gibbous, 73% of the Moon is Illuminated
Mar 21
Waning Gibbous
Mar 23
Last Quarter
Mar 30
New
Apr 6
First Quarter
Apr 14
Full

Hourly Weather History & Observations

Time (HST) Temp. Dew Point Humidity Pressure Visibility Wind Dir Wind Speed Gust Speed Precip Events Conditions
12:25 AM 69.8 °F 64.4 °F 83% 30.09 in 10.0 mi NNE 19.6 mph - N/A   Mostly Cloudy
12:53 AM 71.1 °F 64.9 °F 81% 30.09 in 10.0 mi NNE 19.6 mph - N/A   Mostly Cloudy
1:49 AM 71.6 °F 64.4 °F 78% 30.08 in 10.0 mi NE 19.6 mph - N/A   Mostly Cloudy
1:53 AM 71.1 °F 66.0 °F 84% 30.08 in 10.0 mi NE 20.7 mph 26.5 mph N/A   Mostly Cloudy
2:53 AM 70.0 °F 64.9 °F 84% 30.06 in 10.0 mi NNE 20.7 mph 28.8 mph N/A   Overcast
3:29 AM 68.0 °F 64.4 °F 88% 30.06 in 5.0 mi NNE 18.4 mph - N/A   Overcast
3:45 AM 68.0 °F 64.4 °F 88% 30.06 in 10.0 mi NNE 17.3 mph - 0.00 in   Overcast
3:53 AM 69.1 °F 66.0 °F 90% 30.05 in 10.0 mi NNE 16.1 mph - 0.00 in   Overcast
4:53 AM 68.0 °F 64.9 °F 90% 30.06 in 3.0 mi NNE 15.0 mph - 0.00 in Rain Rain
5:19 AM 66.2 °F 64.4 °F 94% 30.06 in 3.0 mi North 8.1 mph - 0.07 in Rain Light Rain
5:53 AM 69.1 °F 63.0 °F 81% 30.06 in 10.0 mi NNE 19.6 mph - 0.07 in   Mostly Cloudy
6:53 AM 70.0 °F 64.0 °F 81% 30.07 in 10.0 mi NNE 19.6 mph 27.6 mph N/A   Overcast
7:53 AM 71.1 °F 64.0 °F 78% 30.09 in 10.0 mi NE 18.4 mph - N/A   Overcast
8:53 AM 71.1 °F 66.0 °F 84% 30.10 in 9.0 mi NNE 13.8 mph - 0.00 in Rain Light Rain
9:53 AM 73.9 °F 64.9 °F 73% 30.11 in 10.0 mi NNE 16.1 mph 24.2 mph 0.00 in   Overcast
10:12 AM 75.2 °F 66.2 °F 73% 30.11 in 10.0 mi NNE 19.6 mph 24.2 mph N/A   Overcast
10:39 AM 75.2 °F 66.2 °F 73% 30.11 in 10.0 mi NNE 19.6 mph - N/A   Mostly Cloudy
10:53 AM 75.9 °F 66.0 °F 71% 30.10 in 10.0 mi NNE 18.4 mph - N/A   Mostly Cloudy
11:19 AM 77.0 °F 66.2 °F 69% 30.10 in 10.0 mi NNE 18.4 mph - N/A   Mostly Cloudy
11:26 AM 75.2 °F 66.2 °F 73% 30.10 in 10.0 mi NNE 18.4 mph 25.3 mph N/A   Scattered Clouds
11:53 AM 73.9 °F 64.9 °F 73% 30.09 in 10.0 mi NNE 19.6 mph - N/A   Scattered Clouds
12:53 PM 75.9 °F 66.0 °F 71% 30.07 in 10.0 mi NNE 19.6 mph 26.5 mph N/A   Partly Cloudy
1:35 PM 73.4 °F 64.4 °F 73% 30.07 in 10.0 mi NE 18.4 mph - N/A   Mostly Cloudy
1:44 PM 75.2 °F 64.4 °F 69% 30.07 in 10.0 mi NNE 20.7 mph - N/A   Scattered Clouds
1:53 PM 75.9 °F 66.0 °F 71% 30.06 in 10.0 mi NE 19.6 mph - N/A   Scattered Clouds
2:53 PM 77.0 °F 64.9 °F 66% 30.04 in 10.0 mi NNE 17.3 mph - N/A   Scattered Clouds
3:53 PM 75.0 °F 64.9 °F 71% 30.04 in 10.0 mi NNE 19.6 mph - N/A   Mostly Cloudy
4:53 PM 73.0 °F 64.9 °F 76% 30.04 in 10.0 mi NNE 18.4 mph 24.2 mph N/A   Partly Cloudy
5:53 PM 72.0 °F 63.0 °F 73% 30.05 in 10.0 mi NNE 19.6 mph - N/A   Mostly Cloudy
6:53 PM 71.1 °F 63.0 °F 75% 30.07 in 10.0 mi NE 18.4 mph - N/A   Scattered Clouds
7:53 PM 72.0 °F 63.0 °F 73% 30.09 in 10.0 mi NE 20.7 mph - N/A   Overcast
8:53 PM 70.0 °F 64.0 °F 81% 30.11 in 10.0 mi NNE 13.8 mph 26.5 mph 0.00 in   Overcast
9:53 PM 71.1 °F 59.0 °F 66% 30.12 in 10.0 mi NE 17.3 mph - N/A   Clear
10:53 PM 71.1 °F 61.0 °F 70% 30.12 in 10.0 mi NE 19.6 mph - N/A   Clear
11:53 PM 71.1 °F 62.1 °F 73% 30.12 in 10.0 mi NE 17.3 mph - N/A   Clear